Terug naar catalogus

COSMOS 2499 DEB

ActiefPO
NORAD 49940·DEBRIS·🇷🇺 Russia

Gelanceerd May 23, 2014 vanaf Plesetsk Cosmodrome

Loading…

Volgende Passages (komende 24 uur)

TLE

VerouderendSource: Space-Track

Epoch: Sep 9, 2026, 00:54 UTC

1 49940U 14028X   26252.03803708  .00003432  00000-0  78940-2 0  9999
2 49940  82.4664 164.9583 0339968  24.9757 336.7383 13.06013812229951

Volg COSMOS 2499 DEB in realtime met AllMySat

Download on the App Store